FW7086 Weather Reports


time (UTC)temp
C
wind
direction
speed
KPH
gust
KPH
rain 1hr
cm
rain 24hr
cm
rain mn
cm
humidity
%
barometer
mb
20260508223341 17 56 1.6 1.6 0.00 0.00 0.00 61 1007.8
20260508222839 17 107 6.4 11.3 0.00 0.00 0.00 60 1007.8
20260508222336 16 106 3.2 3.2 0.00 0.00 0.00 62 1007.8
20260508221833 17 339 3.2 3.2 0.00 0.00 0.00 61 1007.8
20260508221328 17 157 3.2 3.2 0.00 0.00 0.00 61 1008.0
20260508220825 17 45 6.4 11.3 0.00 0.00 0.00 61 1007.9
20260508220321 18 125 1.6 3.2 0.00 0.00 0.00 59 1007.8
20260508215818 17 91 3.2 3.2 0.00 0.00 0.00 60 1008.0
20260508215314 17 162 4.8 6.4 0.00 0.00 0.00 61 1008.0
20260508214812 17 48 1.6 1.6 0.00 0.00 0.00 61 1008.1
20260508214308 17 81 0.0 1.6 0.00 0.00 0.00 61 1008.1
20260508213805 17 49 3.2 4.8 0.00 0.00 0.00 60 1007.9
20260508213302 17 20 1.6 1.6 0.00 0.00 0.00 58 1008.0
20260508212758 17 93 1.6 1.6 0.00 0.00 0.00 59 1008.0
20260508212254 17 101 4.8 4.8 0.00 0.00 0.00 59 1007.9
20260508211750 17 47 1.6 1.6 0.00 0.00 0.00 60 1007.9
20260508211246 17 103 3.2 4.8 0.00 0.00 0.00 57 1008.1
20260508210744 17 83 4.8 6.4 0.00 0.00 0.00 56 1008.1
20260508210241 17 101 8.0 11.3 0.00 0.00 0.00 55 1008.0
20260508205738 17 85 8.0 12.9 0.00 0.00 0.00 55 1008.2
20260508205234 17 80 3.2 3.2 0.00 0.00 0.00 56 1008.0
20260508204730 17 90 8.0 11.3 0.00 0.00 0.00 55 1008.2
20260508204227 17 32 3.2 4.8 0.00 0.00 0.00 54 1008.2
20260508203723 17 108 1.6 3.2 0.00 0.00 0.00 55 1008.2
20260508203219 17 143 4.8 4.8 0.00 0.00 0.00 55 1008.4
20260508202715 17 64 4.8 11.3 0.00 0.00 0.00 55 1008.4
20260508202213 17 111 4.8 4.8 0.00 0.00 0.00 54 1008.5
20260508201709 17 97 4.8 6.4 0.00 0.00 0.00 54 1008.4
20260508201206 17 143 1.6 3.2 0.00 0.00 0.00 54 1008.6
20260508200703 17 51 3.2 6.4 0.00 0.00 0.00 54 1008.6
20260508200159 17 122 9.7 12.9 0.00 0.00 0.00 52 1008.7
20260508195656 18 93 1.6 1.6 0.00 0.00 0.00 53 1008.8
20260508195152 18 193 1.6 1.6 0.00 0.00 0.00 46 1009.0
20260508194649 18 63 0.0 1.6 0.00 0.00 0.00 46 1008.9
20260508194146 18 220 1.6 1.6 0.00 0.00 0.00 45 1008.9
20260508193643 18 35 1.6 1.6 0.00 0.00 0.00 46 1009.1
20260508193139 18 344 1.6 1.6 0.00 0.00 0.00 46 1009.1
20260508192636 18 94 1.6 1.6 0.00 0.00 0.00 48 1009.2
20260508192134 18 162 0.0 1.6 0.00 0.00 0.00 49 1009.1
20260508191630 18 242 0.0 1.6 0.00 0.00 0.00 47 1009.1
20260508191127 18 230 1.6 3.2 0.00 0.00 0.00 47 1009.3
20260508190625 18 165 6.4 6.4 0.00 0.00 0.00 47 1009.4
20260508190121 18 2 0.0 1.6 0.00 0.00 0.00 46 1009.5
20260508185618 20 140 6.4 11.3 0.00 0.00 0.00 43 1009.6
20260508185115 20 171 3.2 3.2 0.00 0.00 0.00 44 1009.5
20260508184612 19 245 3.2 4.8 0.00 0.00 0.00 42 1009.6
20260508184109 18 171 1.6 3.2 0.00 0.00 0.00 42 1009.7
20260508183606 18 151 1.6 1.6 0.00 0.00 0.00 43 1009.8
20260508183102 18 52 0.0 0.0 0.00 0.00 0.00 44 1009.8
20260508182558 18 191 6.4 9.7 0.00 0.00 0.00 44 1009.9
20260508182055 18 137 3.2 3.2 0.00 0.00 0.00 44 1009.9
20260508181549 18 77 3.2 3.2 0.00 0.00 0.00 45 1010.0
20260508181047 18 323 0.0 0.0 0.00 0.00 0.00 47 1010.0
20260508180544 18 349 1.6 1.6 0.00 0.00 0.00 45 1010.0
20260508180040 18 141 0.0 0.0 0.00 0.00 0.00 47 1010.2
20260508175537 17 44 4.8 6.4 0.00 0.00 0.00 50 1010.4
20260508175034 18 157 1.6 1.6 0.00 0.00 0.00 43 1010.3
20260508174532 18 167 3.2 3.2 0.00 0.00 0.00 43 1010.3
20260508174028 18 60 1.6 1.6 0.00 0.00 0.00 48 1010.4
20260508173525 17 104 1.6 1.6 0.00 0.00 0.00 48 1010.5
20260508173021 17 82 6.4 6.4 0.00 0.00 0.00 46 1010.9
20260508172519 18 275 1.6 3.2 0.00 0.00 0.00 42 1010.8
20260508172015 18 181 3.2 3.2 0.00 0.00 0.00 43 1011.0
20260508171512 18 168 3.2 3.2 0.00 0.00 0.00 42 1011.0
20260508171008 18 218 4.8 9.7 0.00 0.00 0.00 44 1011.2
20260508170506 18 129 3.2 4.8 0.00 0.00 0.00 41 1011.2
20260508170002 18 84 3.2 3.2 0.00 0.00 0.00 41 1011.4
20260508165500 17 142 1.6 1.6 0.00 0.00 0.00 39 1011.5
20260508164956 17 190 4.8 6.4 0.00 0.00 0.00 39 1011.6
20260508164453 17 205 3.2 4.8 0.00 0.00 0.00 39 1011.4
20260508163950 17 163 3.2 4.8 0.00 0.00 0.00 39 1011.6
20260508163448 16 203 3.2 3.2 0.00 0.00 0.00 41 1011.7
20260508162943 16 182 4.8 4.8 0.00 0.00 0.00 37 1012.0
20260508162441 17 99 3.2 4.8 0.00 0.00 0.00 40 1011.8
20260508161938 17 197 1.6 1.6 0.00 0.00 0.00 39 1011.9
20260508161435 17 162 3.2 4.8 0.00 0.00 0.00 41 1012.0
20260508160932 16 166 1.6 3.2 0.00 0.00 0.00 42 1012.0
20260508160431 17 331 0.0 1.6 0.00 0.00 0.00 43 1011.8
20260508155926 17 98 3.2 4.8 0.00 0.00 0.00 41 1011.9
20260508155424 16 176 1.6 1.6 0.00 0.00 0.00 39 1012.2
20260508154921 16 58 8.0 9.7 0.00 0.00 0.00 38 1012.2
20260508154418 16 121 3.2 3.2 0.00 0.00 0.00 42 1012.2
20260508153915 16 109 3.2 4.8 0.00 0.00 0.00 45 1012.2
20260508153412 16 83 1.6 3.2 0.00 0.00 0.00 46 1012.3
20260508152908 16 48 1.6 3.2 0.00 0.00 0.00 46 1012.4
20260508152405 16 167 1.6 3.2 0.00 0.00 0.00 46 1012.3
20260508151901 15 187 1.6 3.2 0.00 0.00 0.00 49 1012.4
20260508151358 15 169 6.4 9.7 0.00 0.00 0.00 48 1012.6
20260508150854 15 59 1.6 1.6 0.00 0.00 0.00 52 1012.4
20260508150351 15 74 4.8 6.4 0.00 0.00 0.00 52 1012.4
20260508145847 15 16 0.0 0.0 0.00 0.00 0.00 54 1012.7
20260508145343 15 148 3.2 4.8 0.00 0.00 0.00 58 1012.5
20260508144840 15 219 4.8 9.7 0.00 0.00 0.00 59 1012.6
20260508144338 15 81 3.2 4.8 0.00 0.00 0.00 61 1012.6
20260508143836 14 125 1.6 3.2 0.00 0.00 0.00 64 1012.7
20260508143332 13 162 3.2 3.2 0.00 0.00 0.00 65 1012.7
20260508142829 14 179 1.6 3.2 0.00 0.00 0.00 66 1012.7
20260508142326 14 125 1.6 3.2 0.00 0.00 0.00 69 1012.8
20260508141823 13 63 0.0 0.0 0.00 0.00 0.00 72 1012.8
20260508141320 12 66 0.0 0.0 0.00 0.00 0.00 74 1012.7
20260508140817 12 60 3.2 3.2 0.00 0.00 0.00 73 1012.7
20260508140314 12 14 0.0 0.0 0.00 0.00 0.00 75 1012.9
20260508135810 12 48 0.0 1.6 0.00 0.00 0.00 78 1012.8
20260508135306 11 23 0.0 0.0 0.00 0.00 0.00 78 1012.5
20260508134801 11 78 1.6 1.6 0.00 0.00 0.00 80 1012.8
20260508134259 11 43 3.2 3.2 0.00 0.00 0.00 80 1012.9
20260508133756 11 67 3.2 3.2 0.00 0.00 0.00 80 1012.6
20260508133253 11 44 1.6 1.6 0.00 0.00 0.00 81 1012.7
20260508132751 10 76 3.2 4.8 0.00 0.00 0.00 82 1012.7
20260508132248 10 52 1.6 3.2 0.00 0.00 0.00 82 1012.7
20260508131744 10 56 0.0 0.0 0.00 0.00 0.00 85 1012.6
20260508131240 10 65 0.0 0.0 0.00 0.00 0.00 85 1012.8
20260508130737 10 30 0.0 1.6 0.00 0.00 0.00 84 1012.7
20260508130234 10 30 0.0 0.0 0.00 0.00 0.00 86 1012.6
20260508125730 9 299 0.0 0.0 0.00 0.00 0.00 87 1012.8
20260508125226 8 176 4.8 4.8 0.00 0.00 0.00 88 1012.9
20260508124725 8 186 3.2 3.2 0.00 0.00 0.00 89 1012.9
20260508124222 8 50 0.0 0.0 0.00 0.00 0.00 89 1012.8
20260508123720 8 32 0.0 0.0 0.00 0.00 0.00 89 1012.9
20260508123218 8 35 0.0 0.0 0.00 0.00 0.00 91 1013.0
20260508122713 7 42 0.0 0.0 0.00 0.00 0.00 93 1012.9
20260508122210 7 1 0.0 0.0 0.00 0.00 0.00 95 1012.9
20260508121708 7 15 0.0 0.0 0.00 0.00 0.00 96 1012.9
20260508121206 7 26 0.0 0.0 0.00 0.00 0.00 96 1013.0
20260508120703 6 166 0.0 0.0 0.00 0.00 0.00 97 1013.0
20260508120201 6 166 0.0 0.0 0.00 0.00 0.00 97 1013.0
20260508115659 6 166 0.0 0.0 0.00 0.00 0.00 97 1012.9
20260508115155 6 303 0.0 0.0 0.00 0.00 0.00 98 1012.8
20260508114652 6 30 0.0 0.0 0.00 0.00 0.00 98 1012.8
20260508114149 6 8 0.0 0.0 0.00 0.00 0.00 98 1012.8
20260508113646 6 352 0.0 0.0 0.00 0.00 0.00 98 1012.7
20260508113144 6 352 0.0 0.0 0.00 0.00 0.00 98 1012.7
20260508112640 6 352 0.0 0.0 0.00 0.00 0.00 98 1012.7
20260508112137 5 352 0.0 0.0 0.00 0.00 0.00 98 1012.5
20260508111633 5 6 0.0 0.0 0.00 0.00 0.00 98 1012.6
20260508111131 5 6 0.0 0.0 0.00 0.00 0.00 98 1012.6
20260508110629 5 6 0.0 0.0 0.00 0.00 0.00 98 1012.4
20260508110125 5 165 0.0 0.0 0.00 0.00 0.00 98 1012.7
20260508105625 5 18 0.0 0.0 0.00 0.00 0.00 98 1012.4
20260508105123 4 7 0.0 0.0 0.00 0.00 0.00 98 1012.4
20260508104620 4 350 0.0 0.0 0.00 0.00 0.00 98 1012.3
20260508104117 4 22 0.0 0.0 0.00 0.00 0.00 98 1012.4
20260508103614 4 170 0.0 0.0 0.00 0.00 0.00 98 1012.6
20260508103111 4 170 0.0 0.0 0.00 0.00 0.00 98 1012.5
20260508102609 4 171 0.0 0.0 0.00 0.00 0.00 98 1012.3
20260508102106 4 171 0.0 0.0 0.00 0.00 0.00 98 1012.4
20260508101603 4 173 0.0 0.0 0.00 0.00 0.00 98 1012.4
20260508101101 3 350 0.0 0.0 0.00 0.00 0.00 98 1012.2
20260508100558 4 350 0.0 0.0 0.00 0.00 0.00 98 1012.3
20260508100055 4 349 0.0 0.0 0.00 0.00 0.00 98 1012.4
20260508095552 4 358 0.0 0.0 0.00 0.00 0.00 98 1012.6
20260508095049 3 6 0.0 1.6 0.00 0.00 0.00 97 1012.6
20260508094546 3 171 0.0 0.0 0.00 0.00 0.00 97 1012.6
20260508094043 4 174 0.0 0.0 0.00 0.00 0.00 97 1012.9
20260508093540 4 174 0.0 0.0 0.00 0.00 0.00 97 1012.6
20260508093038 4 192 0.0 0.0 0.00 0.00 0.00 97 1012.6
20260508092535 4 192 0.0 0.0 0.00 0.00 0.00 97 1012.6
20260508092034 4 192 0.0 0.0 0.00 0.00 0.00 97 1012.7
20260508091530 4 192 0.0 0.0 0.00 0.00 0.00 97 1012.7
20260508091027 4 192 0.0 0.0 0.00 0.00 0.00 97 1012.8
20260508090525 4 192 0.0 0.0 0.00 0.00 0.00 97 1012.7
20260508090022 4 192 0.0 0.0 0.00 0.00 0.00 97 1012.8
20260508085518 4 197 1.6 1.6 0.00 0.00 0.00 97 1012.7
20260508085015 5 355 0.0 0.0 0.00 0.00 0.00 97 1012.6
20260508084512 5 355 0.0 0.0 0.00 0.00 0.00 97 1012.6
20260508084010 5 14 0.0 0.0 0.00 0.00 0.00 96 1012.8
20260508083506 5 52 0.0 0.0 0.00 0.00 0.00 96 1012.9
20260508083003 5 9 0.0 0.0 0.00 0.00 0.00 96 1012.9
20260508082459 5 12 0.0 0.0 0.00 0.00 0.00 96 1012.8
20260508081957 5 13 0.0 0.0 0.00 0.00 0.00 96 1012.9
20260508081454 5 14 0.0 0.0 0.00 0.00 0.00 96 1012.9
20260508080949 5 14 0.0 0.0 0.00 0.00 0.00 96 1012.9
20260508080448 5 14 0.0 0.0 0.00 0.00 0.00 95 1013.0
20260508075944 5 14 0.0 0.0 0.00 0.00 0.00 95 1012.9
20260508075441 5 14 0.0 0.0 0.00 0.00 0.00 95 1013.1
20260508074939 5 357 0.0 0.0 0.00 0.00 0.00 95 1013.0
20260508074437 5 352 0.0 0.0 0.00 0.00 0.00 95 1013.0
20260508073933 5 352 0.0 0.0 0.00 0.00 0.00 95 1013.2
20260508073431 6 1 0.0 0.0 0.00 0.00 0.00 95 1013.2
20260508072928 6 352 0.0 0.0 0.00 0.00 0.00 95 1013.1
20260508072424 6 338 1.6 1.6 0.00 0.00 0.00 95 1013.1
20260508071921 6 349 0.0 0.0 0.00 0.00 0.00 94 1013.2
20260508071419 6 346 0.0 0.0 0.00 0.00 0.00 94 1013.1
20260508070911 6 1 0.0 0.0 0.00 0.00 0.00 94 1013.1
20260508070409 6 347 0.0 0.0 0.00 0.00 0.00 94 1013.2
20260508065906 6 1 0.0 0.0 0.00 0.00 0.00 94 1013.2
20260508065404 6 3 0.0 0.0 0.00 0.00 0.00 93 1013.0
20260508064902 6 347 0.0 0.0 0.00 0.00 0.00 93 1013.1
20260508064359 6 349 0.0 0.0 0.00 0.00 0.00 93 1013.1
20260508063857 6 3 0.0 0.0 0.00 0.00 0.00 93 1013.1
20260508063355 6 13 0.0 0.0 0.00 0.00 0.00 92 1013.1
20260508062852 6 167 1.6 1.6 0.00 0.00 0.00 92 1013.2
20260508062349 6 346 0.0 0.0 0.00 0.00 0.00 92 1013.3
20260508061846 6 347 0.0 0.0 0.00 0.00 0.00 92 1013.1
20260508061343 6 351 1.6 1.6 0.00 0.00 0.00 91 1013.1
20260508060840 6 3 0.0 0.0 0.00 0.00 0.00 91 1013.2
20260508060338 7 159 0.0 0.0 0.00 0.00 0.00 91 1012.9
20260508055837 7 345 0.0 0.0 0.00 0.00 0.00 91 1013.0
20260508055336 7 346 0.0 0.0 0.00 0.00 0.00 91 1012.9
20260508054832 7 349 0.0 0.0 0.00 0.00 0.00 90 1012.8
20260508054330 7 345 0.0 0.0 0.00 0.00 0.00 90 1012.8
20260508053826 7 326 0.0 0.0 0.00 0.00 0.00 90 1013.0
20260508053324 7 267 0.0 0.0 0.00 0.00 0.00 91 1012.8
20260508052821 7 355 0.0 0.0 0.00 0.00 0.00 90 1012.9
20260508052318 7 352 0.0 0.0 0.00 0.00 0.00 90 1012.9
20260508051814 7 191 0.0 0.0 0.00 0.00 0.00 89 1012.9
20260508051309 7 171 0.0 0.0 0.00 0.00 0.00 89 1013.0
20260508050806 7 355 0.0 0.0 0.00 0.00 0.00 90 1012.9
20260508050303 7 356 0.0 0.0 0.00 0.00 0.00 90 1012.7
20260508045759 7 356 0.0 0.0 0.00 0.05 0.05 90 1012.6
20260508045257 7 6 0.0 0.0 0.00 0.05 0.05 89 1012.7
20260508044754 7 25 0.0 0.0 0.00 0.05 0.05 89 1012.8
20260508044251 8 137 0.0 0.0 0.00 0.05 0.05 89 1012.8
20260508043747 8 169 0.0 1.6 0.00 0.05 0.05 88 1012.7
20260508043244 8 344 0.0 0.0 0.00 0.05 0.05 88 1012.6
20260508042741 8 344 0.0 0.0 0.00 0.05 0.05 88 1012.5
20260508042239 8 330 0.0 0.0 0.00 0.05 0.05 88 1012.6
20260508041735 8 347 0.0 0.0 0.00 0.05 0.05 87 1012.5
20260508041232 8 337 0.0 1.6 0.00 0.05 0.05 88 1012.4
20260508040728 8 346 0.0 0.0 0.00 0.05 0.05 88 1012.3
20260508040225 8 170 0.0 0.0 0.00 0.05 0.05 88 1012.2
20260508035723 8 161 0.0 0.0 0.00 0.05 0.05 88 1012.4
20260508035220 8 353 0.0 0.0 0.00 0.05 0.05 87 1012.3
20260508034716 8 333 0.0 0.0 0.00 0.05 0.05 87 1012.3
20260508034214 8 232 0.0 0.0 0.00 0.05 0.05 87 1012.2
20260508033711 9 147 0.0 0.0 0.00 0.05 0.05 86 1012.1
20260508033209 9 154 0.0 0.0 0.00 0.05 0.05 86 1012.2
20260508032706 9 158 0.0 0.0 0.00 0.05 0.05 87 1012.3
20260508032203 9 80 0.0 0.0 0.00 0.05 0.05 86 1012.3
20260508031700 10 143 0.0 0.0 0.00 0.05 0.05 86 1012.3
20260508031156 9 172 1.6 1.6 0.00 0.05 0.05 87 1012.4
20260508030653 9 163 0.0 1.6 0.00 0.05 0.05 87 1012.2
20260508030151 9 148 0.0 0.0 0.00 0.05 0.05 87 1012.3
20260508025647 9 80 0.0 0.0 0.00 0.05 0.05 86 1012.3
20260508025144 9 66 0.0 0.0 0.00 0.05 0.05 84 1012.2
20260508024639 9 163 0.0 0.0 0.00 0.05 0.05 83 1012.0
20260508024137 10 163 0.0 0.0 0.00 0.05 0.05 82 1012.1
20260508023633 10 163 0.0 0.0 0.00 0.05 0.05 81 1012.0
20260508023131 10 169 0.0 0.0 0.00 0.05 0.05 81 1012.1
20260508022626 11 179 0.0 0.0 0.00 0.05 0.05 80 1012.0
20260508022124 11 178 0.0 1.6 0.00 0.05 0.05 79 1012.0
20260508021619 11 183 1.6 1.6 0.00 0.05 0.05 78 1012.0
20260508021115 11 158 0.0 0.0 0.00 0.05 0.05 78 1011.8
20260508020614 11 124 0.0 0.0 0.00 0.05 0.05 77 1011.8
20260508020111 10 168 1.6 1.6 0.00 0.05 0.05 78 1011.9
20260508015608 10 153 0.0 0.0 0.00 0.05 0.05 78 1011.8
20260508015105 10 41 0.0 0.0 0.00 0.05 0.05 77 1011.7
20260508014601 10 153 0.0 0.0 0.00 0.05 0.05 76 1011.7
20260508014058 10 136 0.0 0.0 0.00 0.05 0.05 76 1011.5
20260508013554 10 136 0.0 0.0 0.00 0.05 0.05 75 1011.4
20260508013051 10 26 0.0 0.0 0.00 0.05 0.05 74 1011.3
20260508012548 10 41 0.0 0.0 0.00 0.05 0.05 74 1011.5
20260508012045 10 170 0.0 0.0 0.00 0.05 0.05 72 1011.3
20260508011544 11 155 0.0 0.0 0.00 0.05 0.05 71 1011.2
20260508011041 11 155 0.0 0.0 0.00 0.05 0.05 69 1011.0
20260508010537 11 184 0.0 0.0 0.00 0.05 0.05 67 1011.0
20260508010035 12 184 0.0 0.0 0.00 0.05 0.05 65 1011.2
20260508005531 12 161 0.0 0.0 0.00 0.05 0.05 63 1011.0
20260508005028 12 170 0.0 0.0 0.00 0.05 0.05 61 1011.2
20260508004524 13 170 0.0 0.0 0.00 0.05 0.05 60 1010.9
20260508004021 13 215 0.0 1.6 0.00 0.05 0.05 59 1011.2
20260508003517 13 186 0.0 0.0 0.00 0.05 0.05 59 1011.2
20260508003015 13 189 1.6 1.6 0.00 0.05 0.05 58 1011.0
20260508002511 13 153 1.6 3.2 0.00 0.05 0.05 58 1010.9
20260508002008 13 186 1.6 3.2 0.00 0.05 0.05 58 1010.8
20260508001504 13 195 1.6 1.6 0.00 0.05 0.05 58 1011.0
20260508001001 13 295 0.0 0.0 0.00 0.05 0.05 58 1011.0
20260508000457 14 218 3.2 4.8 0.00 0.05 0.05 56 1010.9
20260507235953 14 232 1.6 1.6 0.00 0.05 0.05 56 1010.8
20260507235445 14 166 1.6 3.2 0.00 0.05 0.05 56 1010.8
20260507234942 14 132 1.6 3.2 0.00 0.05 0.05 56 1010.8
20260507234438 14 227 4.8 6.4 0.00 0.05 0.05 56 1010.7
20260507233935 14 172 0.0 1.6 0.00 0.05 0.05 57 1010.8
20260507233432 14 201 3.2 3.2 0.00 0.05 0.05 57 1010.8
20260507232930 13 168 1.6 1.6 0.00 0.05 0.05 59 1011.0
20260507232426 13 174 4.8 4.8 0.00 0.05 0.05 61 1011.0
20260507231924 13 231 1.6 3.2 0.00 0.05 0.05 64 1010.8
20260507231420 13 169 3.2 4.8 0.00 0.05 0.05 65 1010.9
20260507230916 13 187 4.8 4.8 0.00 0.05 0.05 66 1011.2
20260507230414 13 219 4.8 6.4 0.00 0.05 0.05 67 1011.2
20260507225914 13 219 6.4 6.4 0.00 0.05 0.05 67 1011.4
20260507225410 13 158 6.4 6.4 0.00 0.05 0.05 68 1011.4
20260507224907 12 168 6.4 9.7 0.00 0.05 0.05 68 1011.5
20260507224403 12 177 0.0 1.6 0.00 0.05 0.05 68 1011.4
20260507223900 13 182 8.0 9.7 0.00 0.05 0.05 65 1011.5